Location: Grasslands National Park East Block
(49.0708°N, 106.5295°W)
Time: 11:03:45
(UTC-06:00)

Vanguard 1 Rocket - Pass Details

Date: 29 September 2019
Orbit: 650 x 4226 km, 34.3° (Epoch: 20 October)

Event Time Altitude Azimuth Distance (km) Brightness Sun altitude
Rises 14:46:13 0° 208° (SSW) 7,942 13.3 33.2°
Reaches altitude 10° 14:52:20 10° 200° (SSW) 7,200 13.3 32.6°
Maximum altitude 15:13:15 34° 147° (SSE) 5,514 11.8 30.5°
Drops below altitude 10° 15:31:10 10° 93° (E) 6,270 11.4 28.5°
Sets 15:35:53 0° 84° (E) 6,860 11.4 27.9°
